Regional Weather Roundup
Issued by NWS

Home | Current Version | Previous Version | Text Only | Print | Product List | Glossary Off
Versions: 1 2 3 4 5 6 7 8 9 10 11 12 13 14 15 16 17 18 19 20 21 22 23 24 25 26 27 28 29 30 31 32 33 34 35 36 37 38 39 40 41 42 43 44 45 46 47 48 49 50

000
ASUS43 KOAX 230103
RWRNE

WEATHER ROUNDUP FOR NEBRASKA
NATIONAL WEATHER SERVICE OMAHA NE
800 PM CDT TUE MAY 22 2018

NOTES: SATELLITE DATA IS BEING USED TO AUGMENT CLOUD COVER ABOVE
       12000 FEET.
       "FAIR" INDICATES FEW OR NO CLOUDS BELOW 12,000 FEET WITH NO
       SIGNIFICANT WEATHER AND/OR OBSTRUCTIONS TO VISIBILITY.


NEZ001>004-019>022-054>056-230200-
NEBRASKA PANHANDLE

CITY           SKY/WX    TMP DP  RH WIND       PRES   REMARKS
SCOTTSBLUFF    PTSUNNY   75  58  55 SE10      29.85F
ALLIANCE       MOSUNNY   72  57  59 SE15      29.87S
CHADRON        PTSUNNY   69  56  62 E14       29.88R
GORDON         FAIR      75  54  48 S9        29.90R
KIMBALL        PTSUNNY   68  53  58 SE8       29.90S
SIDNEY         SUNNY     75  52  44 SE16      29.89R
$$

NEZ057>060-069>072-079>082-230200-
SOUTHWEST NEBRASKA

CITY           SKY/WX    TMP DP  RH WIND       PRES   REMARKS
NORTH PLATTE   PTCLDY    79  60  52 SE13G23   29.86S
IMPERIAL       PTSUNNY   76  53  44 S14       29.86R
LEXINGTON      LGT RAIN  75  57  54 SE13G32   29.90F
MCCOOK         MOCLDY    77  57  50 SE14G24   29.87R
OGALLALA       PTSUNNY   78  57  47 SE7       29.86S
$$

NEZ005>010-023>029-035>040-094-230200-
NORTH CENTRAL NEBRASKA

CITY           SKY/WX    TMP DP  RH WIND       PRES   REMARKS
VALENTINE      PTSUNNY   81  62  52 SE15      29.89R
AINSWORTH      MOCLDY    75  63  66 SE7       29.90S
BROKEN BOW     CLEAR     78  61  55 SE10      29.89R
O`NEILL        MOCLDY    81  67  62 SE5       29.90S
ORD            PTCLDY    82  63  52 SE10      29.87S
THEDFORD       MOCLDY    78  62  56 SE10      29.90R
$$

NEZ041-046>049-061>064-073>077-083>087-230200-
SOUTH CENTRAL NEBRASKA

CITY           SKY/WX    TMP DP  RH WIND       PRES   REMARKS
GRAND ISLAND   CLEAR     82  61  48 S14G24    29.91S
AURORA         CLEAR     83  58  43 S13G18    29.91R
HASTINGS       PTCLDY    82  61  48 S12       29.92R
HEBRON         PTCLDY    84  60  43 S9        29.92R
HOLDREGE       CLOUDY    79  62  56 SE13      29.90S
KEARNEY        PTCLDY    80  61  52 SE15      29.90S
YORK           PTCLDY    82  59  44 S12       29.91S
$$

NEZ011>018-030>034-042>045-230200-
NORTHEAST NEBRASKA

CITY           SKY/WX    TMP DP  RH WIND       PRES   REMARKS
NORFOLK        PTCLDY    79  66  64 SE5       29.88R
ALBION         CLOUDY    83  65  54 S7        29.89F
BLAIR          CLEAR     79  66  63 SE9       29.93S
COLUMBUS       CLOUDY    83  62  49 MISG      29.90S
FREMONT        CLEAR     81  66  60 SE10      29.91S
TEKAMAH        PTCLDY    78  68  71 SE12      29.91S
WAYNE          PTCLDY    77  76  96 SE13      29.90S
$$

NEZ050>053-065>068-078-088>093-230200-
SOUTHEAST NEBRASKA

CITY           SKY/WX    TMP DP  RH WIND       PRES   REMARKS
LINCOLN        CLOUDY    81  62  52 S12       29.92R
OMAHA EPPLEY   PTCLDY    82  64  54 SE12      29.92S
BEATRICE       CLOUDY    84  63  49 S13       29.93S
FALLS CITY     CLEAR     82  61  48 S10       29.95R
NEBRASKA CITY  CLOUDY    81  60  48 S12       29.94S
PLATTSMOUTH    CLEAR     81  64  56 SE7       29.93R
$$

NEZ044-045-051>053-067-230200-
OMAHA AREA

CITY           SKY/WX    TMP DP  RH WIND       PRES   REMARKS
OMAHA EPPLEY   PTCLDY    82  64  54 SE12      29.92S
BLAIR          CLEAR     79  66  63 SE9       29.93S
FREMONT        CLEAR     81  66  60 SE10      29.91S
MILLARD        CLEAR     82  68  62 SE5       29.92S
OFFUTT AFB     CLEAR     80  66  62 SE8       29.91S
PLATTSMOUTH    CLEAR     81  64  56 SE7       29.93R
WAHOO          FAIR      83  57  41 S12       29.91S
$$




USA.gov is the U.S. government's official web portal to all federal, state and local government web resources and services.